This is the latest recevied weather packets stored in our database for station/object AE5TC. If no packets are shown the sender has not sent any weather packets the latest 10 day(s).
| Time | Temp. | Humidity | Pressure | Rain* | Wind** | Luminosity | Snow |
|---|---|---|---|---|---|---|---|
| 1777551451 | 24.44° C | 99% | 1010.5 hPa | 0 mm | - | 49 W/m² | - |
| 1777551147 | 24.44° C | 99% | 1010.2 hPa | 0 mm | - | 55 W/m² | - |
| 1777550845 | 24.44° C | 99% | 1010.5 hPa | 0 mm | - | 43 W/m² | - |
| 1777550541 | 24.44° C | 99% | 1010.5 hPa | 0 mm | - | 46 W/m² | - |
| 1777550237 | 23.89° C | 99% | 1010.4 hPa | 0 mm | - | 48 W/m² | - |
| 1777549934 | 23.89° C | 99% | 1010.5 hPa | 0 mm | - | 34 W/m² | - |
| 1777549630 | 23.89° C | 99% | 1010.4 hPa | 0 mm | - | 48 W/m² | - |
| 1777549325 | 23.89° C | 99% | 1010.2 hPa | 0 mm | - | 53 W/m² | - |
| 1777549023 | 23.33° C | 99% | 1010 hPa | 0 mm | - | 32 W/m² | - |
| 1777548719 | 23.89° C | 99% | 1010.4 hPa | 0 mm | - | 23 W/m² | - |
| 1777548416 | 23.89° C | 99% | 1010.1 hPa | 0 mm | - | 16 W/m² | - |
| 1777548113 | 23.89° C | 99% | 1010.1 hPa | 0 mm | - | 6 W/m² | - |
| 1777547809 | 23.89° C | 99% | 1010 hPa | 0 mm | - | 5 W/m² | - |
| 1777547505 | 23.89° C | 99% | 1010.3 hPa | 0 mm | - | 3 W/m² | - |
| 1777547203 | 23.89° C | 99% | 1010.2 hPa | 0 mm | - | 2 W/m² | - |
| 1777546900 | 23.89° C | 99% | 1010.3 hPa | 0 mm | - | 1 W/m² | - |
| 1777546597 | 23.89° C | 99% | 1010.1 hPa | 0 mm | - | 1 W/m² | - |
| 1777546293 | 23.89° C | 99% | 1009.8 hPa | 0 mm | - | 0 W/m² | - |
| 1777545991 | 23.89° C | 99% | 1009.9 hPa | 0 mm | - | 0 W/m² | - |
| 1777545687 | 23.33° C | 99% | 1010 hPa | 0 mm | - | 0 W/m² | - |
| 1777545384 | 23.89° C | 99% | 1009.6 hPa | 0 mm | - | 0 W/m² | - |
| 1777545081 | 23.89° C | 99% | 1009.4 hPa | 0 mm | - | 0 W/m² | - |
| 1777544778 | 23.33° C | 99% | 1009.3 hPa | 0 mm | - | 0 W/m² | - |
| 1777544474 | 23.89° C | 99% | 1009.3 hPa | 0 mm | - | 0 W/m² | - |
| 1777544170 | 23.89° C | 99% | 1009.3 hPa | 0 mm | - | 0 W/m² | - |
* Rain latest hour (hover to see other rain measurements)
** Current wind speed in m/s (hover to see current wind gust speed)